TimeEDT,TemperatureF,Dew PointF,Humidity,Sea Level PressureIn,VisibilityMPH,Wind Direction,Wind SpeedMPH,Gust SpeedMPH,PrecipitationIn,Events,Conditions,WindDirDegrees,DateUTC
12:53 AM,25.0,17.1,72,30.24,10.0,Calm,Calm,-,N/A,,Clear,0,2013-03-30 04:53:00
1:53 AM,24.1,19.0,81,30.24,10.0,Calm,Calm,-,N/A,,Clear,0,2013-03-30 05:53:00
2:53 AM,21.9,19.9,92,30.24,10.0,Calm,Calm,-,N/A,,Clear,0,2013-03-30 06:53:00
3:53 AM,21.9,19.0,89,30.23,10.0,Calm,Calm,-,N/A,,Clear,0,2013-03-30 07:53:00
4:53 AM,19.9,18.0,92,30.22,10.0,Calm,Calm,-,N/A,,Clear,0,2013-03-30 08:53:00
5:53 AM,21.0,18.0,88,30.21,10.0,Calm,Calm,-,N/A,,Clear,0,2013-03-30 09:53:00
6:53 AM,19.0,17.1,92,30.22,10.0,Calm,Calm,-,N/A,,Clear,0,2013-03-30 10:53:00
7:53 AM,19.9,18.0,92,30.22,10.0,Calm,Calm,-,N/A,,Clear,0,2013-03-30 11:53:00
8:53 AM,28.0,24.1,85,30.20,10.0,Calm,Calm,-,N/A,,Clear,0,2013-03-30 12:53:00
9:53 AM,37.0,19.0,48,30.19,10.0,Calm,Calm,-,N/A,,Clear,0,2013-03-30 13:53:00
10:53 AM,42.1,16.0,35,30.17,10.0,South,5.8,-,N/A,,Clear,170,2013-03-30 14:53:00
11:53 AM,45.0,12.9,27,30.13,10.0,SSE,5.8,-,N/A,,Clear,160,2013-03-30 15:53:00
12:53 PM,48.9,14.0,25,30.10,10.0,South,10.4,-,N/A,,Clear,180,2013-03-30 16:53:00
1:53 PM,50.0,18.0,28,30.08,10.0,South,10.4,-,N/A,,Clear,190,2013-03-30 17:53:00
2:53 PM,48.9,18.0,29,30.05,10.0,SSW,8.1,-,N/A,,Clear,210,2013-03-30 18:53:00
3:53 PM,50.0,19.0,29,30.01,10.0,South,11.5,-,N/A,,Mostly Cloudy,180,2013-03-30 19:53:00
4:53 PM,48.9,17.1,28,30.01,10.0,SW,9.2,-,N/A,,Overcast,230,2013-03-30 20:53:00
5:53 PM,48.0,16.0,28,29.98,10.0,SSW,8.1,-,N/A,,Mostly Cloudy,210,2013-03-30 21:53:00
6:53 PM,46.9,15.1,28,29.95,10.0,SSW,8.1,-,N/A,,Overcast,200,2013-03-30 22:53:00
7:53 PM,45.0,17.1,33,29.94,10.0,South,5.8,-,N/A,,Overcast,180,2013-03-30 23:53:00
8:53 PM,43.0,18.0,37,29.93,10.0,SSW,5.8,-,N/A,,Overcast,200,2013-03-31 00:53:00
9:53 PM,43.0,19.0,38,29.91,10.0,South,5.8,-,N/A,,Overcast,170,2013-03-31 01:53:00
10:53 PM,43.0,19.9,40,29.88,10.0,South,6.9,-,N/A,,Overcast,190,2013-03-31 02:53:00
11:53 PM,43.0,21.0,42,29.86,10.0,SSW,6.9,-,N/A,,Overcast,210,2013-03-31 03:53:00